,,PA_Meas_PMT16A,,PR_Meas_QMR101_102,,RH_Meas_QMH101,,SR_Meas_QMS101,,TA_Meas_QMH101,,GenWind,,GenWind,
time,status,PA,status,PR,status,RH,status,SR,status,TA,status,DirAvg,status,SpdAvg,
2013-01-06, 00:00:05,VALID,916.273,VALID,0,VALID,87.4711,VALID,0,VALID,19.3338,VALID,201,VALID,0,
2013-01-06, 00:01:05,VALID,916.475,VALID,0,VALID,87.3262,VALID,0,VALID,19.3923,VALID,201,VALID,0,
2013-01-06, 00:02:05,VALID,916.188,VALID,0,VALID,87.1814,VALID,0,VALID,19.4313,VALID,201,VALID,0,
2013-01-06, 00:03:05,VALID,916.67,VALID,0,VALID,87.1128,VALID,0,VALID,19.4898,VALID,201,VALID,0,
2013-01-06, 00:04:05,VALID,916.696,VALID,0,VALID,86.9146,VALID,0,VALID,19.5288,VALID,201,VALID,0,
2013-01-06, 00:05:05,VALID,917.047,VALID,0,VALID,86.8155,VALID,0,VALID,19.5888,VALID,201,VALID,0,
2013-01-06, 00:06:05,VALID,916.513,VALID,0,VALID,86.6172,VALID,0,VALID,19.6068,VALID,201,VALID,0,
2013-01-06, 00:07:05,VALID,916.671,VALID,0,VALID,85.9845,VALID,0,VALID,19.6473,VALID,201,VALID,0,
2013-01-06, 00:08:05,VALID,916.63,VALID,0,VALID,85.9769,VALID,0,VALID,19.6473,VALID,233,VALID,0,
2013-01-06, 00:09:05,VALID,916.428,VALID,0,VALID,85.4432,VALID,0,VALID,19.6458,VALID,244,VALID,0,
2013-01-06, 00:10:05,VALID,916.295,VALID,0,VALID,85.5652,VALID,0,VALID,19.5288,VALID,244,VALID,0,
2013-01-06, 00:11:05,VALID,917.848,VALID,0,VALID,86.8078,VALID,0,VALID,19.4313,VALID,244,VALID,0,
2013-01-06, 00:12:05,VALID,917.028,VALID,0,VALID,87.25,VALID,0.107441,VALID,19.3533,VALID,244,VALID,0,
2013-01-06, 00:13:05,VALID,917.244,VALID,0,VALID,87.311,VALID,0.107441,VALID,19.2948,VALID,244,VALID,0,
2013-01-06, 00:14:05,VALID,917.685,VALID,0,VALID,86.9527,VALID,0,VALID,19.2363,VALID,244,VALID,0,
2013-01-06, 00:15:05,VALID,917.224,VALID,0,VALID,87.9971,VALID,0,VALID,19.1583,VALID,244,VALID,0,
2013-01-06, 00:16:05,VALID,915.806,VALID,0,VALID,88.485,VALID,0,VALID,19.0998,VALID,244,VALID,0,
2013-01-06, 00:17:05,VALID,915.259,VALID,0,VALID,88.4697,VALID,0,VALID,19.0803,VALID,244,VALID,0,
2013-01-06, 00:18:05,VALID,914.11,VALID,0,VALID,88.8433,VALID,0,VALID,19.0803,VALID,244,VALID,0,
2013-01-06, 00:19:05,INVALID,916.614,VALID,0,VALID,87.6464,VALID,0,VALID,19.0608,VALID,244,VALID,0,
2013-01-06, 00:20:05,VALID,916.221,VALID,0,VALID,88.302,VALID,0,VALID,19.0023,VALID,244,VALID,0,
2013-01-06, 00:21:05,VALID,916.721,VALID,0,VALID,87.6159,VALID,0,VALID,18.9647,VALID,244,VALID,0,
2013-01-06, 00:22:05,VALID,918.61,VALID,0,VALID,88.7671,VALID,0,VALID,18.8853,VALID,244,VALID,0,
2013-01-06, 00:23:05,VALID,917.166,VALID,0,VALID,88.8814,VALID,0,VALID,18.8268,VALID,244,VALID,0,
2013-01-06, 00:24:05,VALID,916.125,VALID,0,VALID,89.5065,VALID,0,VALID,18.7878,VALID,244,VALID,0,
2013-01-06, 00:25:05,VALID,915.349,VALID,0,VALID,89.7962,VALID,0,VALID,18.7683,VALID,244,VALID,0,
2013-01-06, 00:26:05,VALID,917.231,VALID,0,VALID,89.6209,VALID,0.107441,VALID,18.7293,VALID,334,VALID,0,
2013-01-06, 00:27:05,VALID,917.348,VALID,0,VALID,89.9411,VALID,0.107441,VALID,18.6708,VALID,340,VALID,0,
2013-01-06, 00:28:05,VALID,917.549,VALID,0,VALID,89.9258,VALID,0,VALID,18.6513,VALID,340,VALID,0,
2013-01-06, 00:29:05,VALID,919.019,VALID,0,VALID,89.72,VALID,0,VALID,18.6138,VALID,340,VALID,0,
2013-01-06, 00:30:05,VALID,917.393,VALID,0,VALID,89.8801,VALID,0,VALID,18.5943,VALID,340,VALID,0,
2013-01-06, 00:31:05,INVALID,915.002,VALID,0,VALID,90.1316,VALID,0,VALID,18.5748,VALID,340,VALID,0,
2013-01-06, 00:32:05,VALID,913.437,VALID,0,VALID,89.9944,VALID,0,VALID,18.5553,VALID,340,VALID,0,
2013-01-06, 00:33:05,VALID,913.745,VALID,0,VALID,90.3527,VALID,0,VALID,18.5553,VALID,340,VALID,0,
2013-01-06, 00:34:05,VALID,914.969,VALID,0,VALID,90.8483,VALID,0,VALID,18.6124,VALID,340,VALID,0,
2013-01-06, 07:03:04,VALID,916.181,VALID,0,VALID,87.7836,VALID,74.5642,VALID,19.4913,VALID,5,VALID,0,
2013-01-06, 07:04:04,VALID,917.891,VALID,0,VALID,87.7074,VALID,76.8204,VALID,19.5498,VALID,1,VALID,0,
2013-01-06, 07:05:04,VALID,916.575,VALID,0,VALID,87.5092,VALID,78.432,VALID,19.5888,VALID,360,VALID,0,
2013-01-06, 07:06:04,INVALID,918.703,VALID,0,VALID,87.3643,VALID,81.6553,VALID,19.6863,VALID,358,VALID,0,
2013-01-06, 07:07:04,VALID,914.663,VALID,0,VALID,87.0289,VALID,84.986,VALID,19.8423,VALID,360,VALID,0,
2013-01-06, 07:08:04,INVALID,917.132,VALID,0,VALID,86.5715,VALID,88.1017,VALID,19.9008,VALID,12,VALID,0,
2013-01-06, 07:09:04,VALID,918.435,VALID,0,VALID,86.1675,VALID,89.8208,VALID,20.0179,VALID,352,VALID,0,
2013-01-06, 07:10:04,VALID,917.26,VALID,0,VALID,85.832,VALID,92.2919,VALID,20.0959,VALID,353,VALID,0,
2013-01-06, 07:11:04,VALID,917.247,VALID,0,VALID,85.8015,VALID,93.4738,VALID,20.1739,VALID,360,VALID,0,
2013-01-06, 07:12:04,VALID,917.034,VALID,0,VALID,85.7939,VALID,94.7631,VALID,20.1739,VALID,5,VALID,0,
2013-01-06, 07:13:04,VALID,917.224,VALID,0,VALID,85.5119,VALID,93.7961,VALID,20.2129,VALID,359,VALID,0,
2013-01-06, 07:14:04,VALID,916.979,VALID,0,VALID,85.7558,VALID,100.243,VALID,20.2699,VALID,3,VALID,0,
2013-01-06, 07:15:04,VALID,916.756,VALID,0,VALID,85.0926,VALID,105.077,VALID,20.2714,VALID,1,VALID,0,
2013-01-06, 07:16:04,VALID,918.014,VALID,0,VALID,85.6643,VALID,109.483,VALID,20.33,VALID,14,VALID,0,
2013-01-06, 07:17:04,VALID,917.453,VALID,0,VALID,85.4356,VALID,113.78,VALID,20.369,VALID,349,VALID,0,
2013-01-06, 07:18:04,VALID,917.401,VALID,0,VALID,84.8486,VALID,118.83,VALID,20.4064,VALID,336,VALID,0,
2013-01-06, 07:19:04,VALID,916.588,VALID,0,VALID,84.7876,VALID,123.235,VALID,20.4845,VALID,346,VALID,0,
2013-01-06, 07:20:04,VALID,916.531,VALID,0,VALID,85.1078,VALID,126.888,VALID,20.5235,VALID,336,VALID,0,
2013-01-06, 07:21:04,VALID,916.538,VALID,0,VALID,84.1015,VALID,131.078,VALID,20.6015,VALID,360,VALID,0,
2013-01-06, 07:22:04,VALID,916.572,VALID,0,VALID,83.9414,VALID,132.582,VALID,20.699,VALID,2,VALID,0,
2013-01-06, 07:23:04,VALID,916.56,VALID,0,VALID,83.3011,VALID,133.657,VALID,20.7576,VALID,346,VALID,0,
2013-01-06, 07:24:04,VALID,916.634,VALID,0,VALID,83.019,VALID,133.979,VALID,20.8356,VALID,340,VALID,0,
2013-01-06, 07:25:04,VALID,916.656,VALID,0,VALID,83.4307,VALID,134.839,VALID,20.9722,VALID,347,VALID,0,
2013-01-06, 07:26:04,VALID,916.74,VALID,0,VALID,82.4396,VALID,132.69,VALID,21.0307,VALID,347,VALID,0,
2013-01-06, 07:27:04,VALID,916.683,VALID,0,VALID,82.0966,VALID,126.458,VALID,21.1087,VALID,327,VALID,0,
2013-01-06, 07:28:04,VALID,916.556,VALID,0,VALID,81.6697,VALID,133.334,VALID,21.1282,VALID,348,VALID,0,
2013-01-06, 07:29:04,VALID,916.673,VALID,0,VALID,81.9822,VALID,130.111,VALID,21.1868,VALID,8,VALID,0,
2013-01-06, 07:30:04,VALID,916.765,VALID,0,VALID,82.4396,VALID,105.077,VALID,21.2258,VALID,356,VALID,0,
2013-01-06, 07:31:04,VALID,916.742,VALID,0,VALID,82.4472,VALID,102.499,VALID,21.2063,VALID,335,VALID,0,
2013-01-06, 07:32:04,VALID,916.844,VALID,0,VALID,81.7535,VALID,109.912,VALID,21.2047,VALID,346,VALID,0,
2013-01-06, 07:33:04,VALID,916.757,VALID,0,VALID,82.371,VALID,153.104,VALID,21.2648,VALID,356,VALID,0,
2013-01-06, 07:34:04,VALID,916.791,VALID,0,VALID,82.6836,VALID,163.418,VALID,21.2258,VALID,9,VALID,0,
2013-01-06, 07:35:04,VALID,916.656,VALID,0,VALID,82.6455,VALID,163.848,VALID,21.2242,VALID,9,VALID,0,
2013-01-06, 07:36:04,VALID,916.836,VALID,0,VALID,82.3634,VALID,162.129,VALID,21.2827,VALID,351,VALID,0,
2013-01-06, 07:37:04,VALID,916.94,VALID,0,VALID,81.441,VALID,167.286,VALID,21.3022,VALID,343,VALID,0,
2013-01-06, 07:38:04,VALID,916.914,VALID,0,VALID,81.6773,VALID,171.261,VALID,21.3819,VALID,343,VALID,0,
2013-01-06, 07:39:04,VALID,916.936,VALID,0,VALID,81.6773,VALID,171.261,VALID,21.4599,VALID,343,VALID,0,
2013-01-06, 07:40:04,VALID,917.008,VALID,0,VALID,80.6939,VALID,167.931,VALID,21.5168,VALID,346,VALID,0,
2013-01-06, 07:41:04,VALID,916.972,VALID,0,VALID,80.8235,VALID,152.352,VALID,21.5754,VALID,3,VALID,0,
2013-01-06, 07:42:04,VALID,916.949,VALID,0,VALID,80.8997,VALID,149.451,VALID,21.6746,VALID,352,VALID,0,
2013-01-06, 07:43:04,VALID,917.072,VALID,0,VALID,80.2822,VALID,152.781,VALID,21.6746,VALID,337,VALID,0,
2013-01-06, 07:44:04,VALID,917.005,VALID,0,VALID,79.9391,VALID,149.666,VALID,21.7348,VALID,357,VALID,0,
2013-01-06, 07:45:04,VALID,917.048,VALID,0,VALID,79.0472,VALID,143.864,VALID,21.8307,VALID,356,VALID,0,
2013-01-06, 07:46:04,VALID,917.098,VALID,0,VALID,81.258,VALID,146.657,VALID,21.8307,VALID,343,VALID,0,
2013-01-06, 07:47:04,VALID,917.069,VALID,0,VALID,80.4347,VALID,147.517,VALID,21.7331,VALID,350,VALID,0,
2013-01-06, 07:48:04,VALID,917.035,VALID,0,VALID,81.1665,VALID,156.219,VALID,21.8697,VALID,4,VALID,0,
2013-01-06, 07:49:04,VALID,917.113,VALID,0,VALID,81.0445,VALID,164.707,VALID,21.9461,VALID,4,VALID,0,
2013-01-06, 07:50:04,VALID,917.195,VALID,0,VALID,79.4741,VALID,169.542,VALID,21.9868,VALID,4,VALID,0,
2013-01-06, 07:51:04,VALID,917.124,VALID,0,VALID,79.0015,VALID,166.426,VALID,22.0258,VALID,4,VALID,0,
2013-01-06, 07:52:04,VALID,917.163,VALID,0,VALID,79.5199,VALID,167.393,VALID,22.0827,VALID,4,VALID,0,
2013-01-06, 07:53:04,VALID,917.178,VALID,0,VALID,80.1221,VALID,163.633,VALID,22.0844,VALID,4,VALID,0,
2013-01-06, 07:54:04,VALID,917.297,VALID,0,VALID,80.0611,VALID,156.112,VALID,22.1625,VALID,4,VALID,0,
2013-01-06, 07:55:04,VALID,917.202,VALID,0,VALID,79.5427,VALID,154.071,VALID,22.182,VALID,4,VALID,0,
2013-01-06, 07:56:04,VALID,917.233,VALID,0,VALID,78.5974,VALID,156.219,VALID,22.2779,VALID,4,VALID,0,
2013-01-06, 07:57:04,VALID,917.305,VALID,0,VALID,77.8351,VALID,154.178,VALID,22.2991,VALID,350,VALID,0,
2013-01-06, 07:58:04,VALID,917.215,VALID,0,VALID,78.7041,VALID,158.583,VALID,22.2779,VALID,350,VALID,0,
2013-01-06, 07:59:04,VALID,917.334,VALID,0,VALID,79.2683,VALID,161.377,VALID,22.26,VALID,344,VALID,0,
2013-01-06, 08:00:04,VALID,917.262,VALID,0,VALID,77.6521,VALID,164.922,VALID,22.1998,VALID,350,VALID,0,
2013-01-06, 08:01:04,VALID,917.23,VALID,0,VALID,78.1781,VALID,163.096,VALID,22.1217,VALID,350,VALID,0,
2013-01-06, 08:02:04,VALID,917.289,VALID,0,VALID,79.192,VALID,160.195,VALID,22.0844,VALID,350,VALID,0,
2013-01-06, 08:03:04,VALID,917.304,VALID,0,VALID,79.0548,VALID,156.219,VALID,22.0242,VALID,9,VALID,0,
2013-01-06, 08:04:04,VALID,917.342,VALID,0,VALID,78.8033,VALID,160.41,VALID,22.0047,VALID,9,VALID,0,
2013-01-06, 08:05:04,VALID,917.441,VALID,0,VALID,79.84,VALID,154.178,VALID,22.0047,VALID,354,VALID,0,
2013-01-06, 08:06:04,VALID,917.424,VALID,0,VALID,80.1526,VALID,143.112,VALID,21.9656,VALID,341,VALID,0,
2013-01-06, 08:07:04,VALID,917.328,VALID,0,VALID,80.9149,VALID,136.558,VALID,21.8681,VALID,354,VALID,0,
2013-01-06, 08:08:04,VALID,917.434,VALID,0,VALID,81.0064,VALID,140.318,VALID,21.8876,VALID,349,VALID,0,
2013-01-06, 08:09:04,VALID,917.368,VALID,0,VALID,80.732,VALID,154.285,VALID,21.8095,VALID,330,VALID,0,
2013-01-06, 08:10:04,VALID,917.321,VALID,0,VALID,80.8921,VALID,143.326,VALID,21.8485,VALID,348,VALID,0,
2013-01-06, 08:11:04,VALID,917.367,VALID,0,VALID,80.8082,VALID,146.872,VALID,21.829,VALID,344,VALID,0,
2013-01-06, 08:12:04,VALID,917.329,VALID,0,VALID,80.5261,VALID,151.599,VALID,21.751,VALID,334,VALID,0,
2013-01-06, 08:13:04,VALID,917.344,VALID,0,VALID,80.7853,VALID,157.186,VALID,21.712,VALID,1,VALID,0,
2013-01-06, 08:14:04,VALID,917.386,VALID,0,VALID,81.1589,VALID,165.889,VALID,21.6729,VALID,343,VALID,0,
2013-01-06, 08:15:04,VALID,917.435,VALID,0,VALID,81.197,VALID,175.989,VALID,21.6729,VALID,344,VALID,0,
2013-01-06, 08:16:04,VALID,917.398,VALID,0,VALID,81.0674,VALID,183.402,VALID,21.79,VALID,346,VALID,0,
2013-01-06, 08:17:04,VALID,917.335,VALID,0,VALID,81.2275,VALID,188.667,VALID,21.829,VALID,346,VALID,0,
2013-01-06, 08:18:04,VALID,917.972,VALID,0,VALID,81.8221,VALID,201.452,VALID,21.9266,VALID,12,VALID,0,
2013-01-06, 08:19:04,VALID,917.417,VALID,0,VALID,81.2885,VALID,226.916,VALID,21.9071,VALID,9,VALID,0,
2013-01-06, 08:20:04,VALID,917.496,VALID,0,VALID,79.9849,VALID,278.595,VALID,22.0047,VALID,346,VALID,0,
2013-01-06, 08:21:04,VALID,917.479,VALID,0,VALID,79.1387,VALID,270.644,VALID,22.0242,VALID,335,VALID,0,
2013-01-06, 08:22:04,VALID,917.538,VALID,0,VALID,80.8768,VALID,246.255,VALID,22.1217,VALID,336,VALID,0,
2013-01-06, 08:23:04,VALID,917.555,VALID,0,VALID,79.8248,VALID,215.312,VALID,22.2388,VALID,345,VALID,0,
2013-01-06, 08:24:04,VALID,917.468,VALID,0,VALID,80.1526,VALID,207.039,VALID,22.3169,VALID,360,VALID,0,
2013-01-06, 08:25:04,VALID,917.526,VALID,0,VALID,79.2912,VALID,204.353,VALID,22.4145,VALID,19,VALID,0,
2013-01-06, 08:26:04,VALID,917.488,VALID,0,VALID,80.3432,VALID,203.279,VALID,22.5706,VALID,19,VALID,0,
2013-01-06, 08:27:04,VALID,917.622,VALID,0,VALID,78.8719,VALID,203.171,VALID,22.5901,VALID,19,VALID,0,
2013-01-06, 08:28:04,VALID,917.529,VALID,0,VALID,79.0472,VALID,204.353,VALID,22.7853,VALID,19,VALID,0,
2013-01-06, 08:29:04,VALID,917.668,VALID,0,VALID,76.9203,VALID,206.609,VALID,22.8243,VALID,18,VALID,0,
2013-01-06, 08:30:04,VALID,917.682,VALID,0,VALID,77.6445,VALID,210.907,VALID,22.8829,VALID,18,VALID,0,
2013-01-06, 08:31:04,VALID,917.686,VALID,0,VALID,78.4221,VALID,219.073,VALID,22.9024,VALID,18,VALID,0,
2013-01-06, 08:32:04,VALID,917.462,VALID,0,VALID,76.0512,VALID,236.048,VALID,22.8829,VALID,18,VALID,0,
2013-01-06, 08:33:04,VALID,917.573,VALID,0,VALID,78.5669,VALID,272.686,VALID,22.9805,VALID,1,VALID,0,
2013-01-06, 08:34:04,VALID,917.538,VALID,0,VALID,76.6839,VALID,289.661,VALID,23.0391,VALID,359,VALID,0,
2013-01-06, 08:35:04,VALID,917.729,VALID,0,VALID,78.6432,VALID,332.638,VALID,23.1757,VALID,359,VALID,0,
2013-01-06, 08:36:04,VALID,917.631,VALID,0,VALID,77.4539,VALID,232.718,VALID,23.3319,VALID,359,VALID,0,
2013-01-06, 08:37:04,VALID,917.602,VALID,0,VALID,75.2431,VALID,220.577,VALID,23.5466,VALID,359,VALID,0,
2013-01-06, 08:38:04,VALID,917.734,VALID,0,VALID,73.6574,VALID,215.742,VALID,23.6034,VALID,359,VALID,0,
2013-01-06, 08:39:04,VALID,917.694,VALID,0,VALID,73.6117,VALID,214.667,VALID,23.6815,VALID,359,VALID,0,
2013-01-06, 08:40:04,VALID,917.642,VALID,0,VALID,72.8722,VALID,216.064,VALID,23.6424,VALID,359,VALID,0,
2013-01-06, 08:41:04,VALID,917.739,VALID,0,VALID,73.4287,VALID,220.254,VALID,23.5448,VALID,359,VALID,0,
2013-01-06, 08:42:04,VALID,917.717,VALID,0,VALID,73.0857,VALID,226.808,VALID,23.4863,VALID,359,VALID,0,
2013-01-06, 08:43:04,VALID,917.728,VALID,0,VALID,72.6512,VALID,239.164,VALID,23.5466,VALID,359,VALID,0,
2013-01-06, 08:44:04,VALID,917.703,VALID,0,VALID,73.5431,VALID,245.073,VALID,23.6052,VALID,359,VALID,0,
2013-01-06, 08:45:04,VALID,917.75,VALID,0,VALID,72.5368,VALID,241.098,VALID,23.6247,VALID,359,VALID,0,
2013-01-06, 08:46:04,VALID,917.673,VALID,0,VALID,72.6664,VALID,239.379,VALID,23.6424,VALID,359,VALID,0,
2013-01-06, 08:47:04,VALID,917.645,VALID,0,VALID,73.9319,VALID,239.701,VALID,23.74,VALID,359,VALID,0,
2013-01-06, 08:48:04,VALID,917.62,VALID,0,VALID,73.7337,VALID,241.313,VALID,23.8962,VALID,359,VALID,0,
2013-01-06, 08:49:04,VALID,917.789,VALID,0,VALID,73.2,VALID,243.462,VALID,23.9566,VALID,359,VALID,0,
2013-01-06, 08:50:04,VALID,917.688,VALID,0,VALID,73.0933,VALID,245.503,VALID,24.0152,VALID,359,VALID,0,
2013-01-06, 08:51:04,VALID,917.717,VALID,0,VALID,71.2866,VALID,251.52,VALID,24.0347,VALID,359,VALID,0,
2013-01-06, 08:52:04,VALID,917.807,VALID,0,VALID,71.8202,VALID,258.289,VALID,23.9957,VALID,359,VALID,0,
2013-01-06, 08:53:04,VALID,917.778,VALID,0,VALID,72.0641,VALID,258.396,VALID,23.9957,VALID,359,VALID,0,
2013-01-06, 08:54:04,VALID,917.726,VALID,0,VALID,72.9103,VALID,259.363,VALID,24.0561,VALID,359,VALID,0,
2013-01-06, 08:55:04,VALID,917.712,VALID,0,VALID,72.6588,VALID,271.611,VALID,24.1909,VALID,359,VALID,0,
2013-01-06, 08:56:04,VALID,917.789,VALID,0,VALID,72.1785,VALID,272.041,VALID,24.3081,VALID,359,VALID,0,
2013-01-06, 08:57:04,VALID,917.765,VALID,0,VALID,71.6677,VALID,292.133,VALID,24.3862,VALID,359,VALID,0,
2013-01-06, 08:58:04,VALID,917.8,VALID,0,VALID,71.6067,VALID,397.855,VALID,24.4839,VALID,7,VALID,0,
2013-01-06, 08:59:04,VALID,917.771,VALID,0,VALID,71.622,VALID,363.581,VALID,24.6206,VALID,13,VALID,0,
2013-01-06, 09:00:04,VALID,917.94,VALID,0,VALID,70.6919,VALID,445.988,VALID,24.6791,VALID,9,VALID,0,
2013-01-06, 09:01:04,VALID,917.928,VALID,0,VALID,69.5789,VALID,420.525,VALID,24.7573,VALID,9,VALID,0,
2013-01-06, 09:02:04,VALID,917.784,VALID,0,VALID,69.8686,VALID,475.857,VALID,24.9311,VALID,9,VALID,0,
2013-01-06, 09:03:04,VALID,917.905,VALID,0,VALID,70.2345,VALID,421.492,VALID,25.1674,VALID,9,VALID,0,
2013-01-06, 09:04:04,VALID,917.835,VALID,0,VALID,68.4125,VALID,291.166,VALID,25.226,VALID,28,VALID,0,
2013-01-06, 09:05:04,VALID,917.83,VALID,0,VALID,68.8471,VALID,278.917,VALID,25.2046,VALID,28,VALID,0,
2013-01-06, 09:06:04,VALID,917.878,VALID,0,VALID,66.9946,VALID,282.678,VALID,25.185,VALID,310,VALID,0,
2013-01-06, 09:07:04,VALID,918.12,VALID,0,VALID,67.269,VALID,341.341,VALID,25.0698,VALID,310,VALID,0,
2013-01-06, 09:08:04,VALID,918.133,VALID,0,VALID,68.2829,VALID,468.443,VALID,25.1674,VALID,310,VALID,0,
2013-01-06, 09:09:04,VALID,917.826,VALID,0,VALID,67.7112,VALID,325.762,VALID,25.3022,VALID,7,VALID,0,
2013-01-06, 09:10:04,VALID,917.904,VALID,0,VALID,67.3529,VALID,322.001,VALID,25.3589,VALID,34,VALID,0,
2013-01-06, 09:11:04,VALID,917.883,VALID,0,VALID,66.0569,VALID,308.356,VALID,25.3394,VALID,34,VALID,0,
2013-01-06, 09:12:04,VALID,917.903,VALID,0,VALID,68.0771,VALID,356.597,VALID,25.3218,VALID,34,VALID,0,
2013-01-06, 09:13:04,VALID,917.917,VALID,0,VALID,68.0085,VALID,299.116,VALID,25.3608,VALID,34,VALID,0,
2013-01-06, 09:14:04,VALID,917.904,VALID,0,VALID,67.2614,VALID,304.166,VALID,25.3589,VALID,34,VALID,0,
2013-01-06, 09:15:04,VALID,917.942,VALID,0,VALID,66.56,VALID,309.323,VALID,25.3608,VALID,34,VALID,0,
2013-01-06, 09:16:04,VALID,917.921,VALID,0,VALID,68.5269,VALID,306.1,VALID,25.2788,VALID,34,VALID,0,
2013-01-06, 09:17:04,VALID,917.917,VALID,0,VALID,68.4202,VALID,300.083,VALID,25.2164,VALID,10,VALID,0,
2013-01-06, 09:18:04,VALID,917.973,VALID,0,VALID,69.0681,VALID,297.29,VALID,25.105,VALID,349,VALID,0,
2013-01-06, 09:19:04,VALID,917.952,VALID,0,VALID,67.9704,VALID,296.323,VALID,25.105,VALID,349,VALID,0,
2013-01-06, 09:20:04,VALID,917.927,VALID,0,VALID,68.2906,VALID,289.876,VALID,25.0836,VALID,21,VALID,0,
2013-01-06, 09:21:04,VALID,917.94,VALID,0,VALID,69.9143,VALID,280.314,VALID,25.1245,VALID,27,VALID,0,
2013-01-06, 09:22:04,VALID,917.987,VALID,0,VALID,70.1735,VALID,276.339,VALID,25.0836,VALID,25,VALID,0,
2013-01-06, 09:23:04,VALID,917.949,VALID,0,VALID,71.9422,VALID,272.901,VALID,25.105,VALID,25,VALID,0,
2013-01-06, 09:24:04,VALID,917.97,VALID,0,VALID,71.7211,VALID,269.892,VALID,25.105,VALID,25,VALID,0,
2013-01-06, 09:25:04,VALID,917.952,VALID,0,VALID,70.5166,VALID,267.206,VALID,25.0074,VALID,25,VALID,0,
2013-01-06, 09:26:04,VALID,917.956,VALID,0,VALID,68.5421,VALID,265.702,VALID,24.8511,VALID,31,VALID,0,
2013-01-06, 09:27:04,VALID,917.969,VALID,0,VALID,70.2727,VALID,266.024,VALID,24.6559,VALID,33,VALID,0,
2013-01-06, 09:28:04,VALID,917.956,VALID,0,VALID,71.8812,VALID,267.958,VALID,24.4997,VALID,41,VALID,0,
2013-01-06, 09:29:04,VALID,917.973,VALID,0,VALID,72.5749,VALID,271.074,VALID,24.3844,VALID,28,VALID,0,
2013-01-06, 09:30:04,VALID,918,VALID,0,VALID,73.2305,VALID,273.867,VALID,24.3239,VALID,38,VALID,0,
2013-01-06, 09:31:04,VALID,918.013,VALID,0,VALID,72.0032,VALID,275.372,VALID,24.3611,VALID,32,VALID,0,
2013-01-06, 09:32:04,VALID,917.999,VALID,0,VALID,69.9906,VALID,277.091,VALID,24.3825,VALID,5,VALID,0,
2013-01-06, 09:33:04,VALID,917.989,VALID,0,VALID,71.8507,VALID,279.24,VALID,24.2654,VALID,28,VALID,0,
2013-01-06, 09:34:04,VALID,917.969,VALID,0,VALID,73.0323,VALID,280.851,VALID,24.2086,VALID,33,VALID,0,
2013-01-06, 09:35:04,VALID,917.978,VALID,0,VALID,69.6933,VALID,283.322,VALID,24.1305,VALID,293,VALID,0,
2013-01-06, 09:36:04,VALID,917.98,VALID,0,VALID,70.7987,VALID,285.901,VALID,24.0506,VALID,43,VALID,0,
2013-01-06, 09:37:04,VALID,917.981,VALID,0,VALID,71.7058,VALID,288.05,VALID,24.0311,VALID,34,VALID,0,
2013-01-06, 09:38:04,VALID,917.964,VALID,0,VALID,71.8964,VALID,290.736,VALID,24.0915,VALID,39,VALID,0,
2013-01-06, 09:39:04,VALID,917.983,VALID,0,VALID,71.3323,VALID,296.108,VALID,24.1287,VALID,28,VALID,0,
2013-01-06, 09:40:04,VALID,917.937,VALID,0,VALID,72.0032,VALID,305.992,VALID,24.2672,VALID,38,VALID,0,
2013-01-06, 09:41:04,VALID,917.937,VALID,0,VALID,71.3857,VALID,318.778,VALID,24.3435,VALID,19,VALID,0,
2013-01-06, 09:42:04,VALID,917.921,VALID,0,VALID,69.6018,VALID,335.002,VALID,24.4429,VALID,29,VALID,0,
2013-01-06, 09:43:04,VALID,917.952,VALID,0,VALID,70.4251,VALID,429.765,VALID,24.4429,VALID,11,VALID,0,
2013-01-06, 09:44:04,VALID,917.952,VALID,0,VALID,70.8444,VALID,403.979,VALID,24.5192,VALID,27,VALID,0,
2013-01-06, 09:45:04,VALID,917.912,VALID,0,VALID,70.9435,VALID,354.556,VALID,24.6773,VALID,14,VALID,0,
2013-01-06, 09:46:04,VALID,917.925,VALID,0,VALID,70.1888,VALID,345.423,VALID,24.7749,VALID,9,VALID,0,
2013-01-06, 09:47:04,VALID,917.953,VALID,0,VALID,69.0834,VALID,350.903,VALID,24.6577,VALID,15,VALID,0,
2013-01-06, 09:48:04,VALID,917.984,VALID,0,VALID,70.9511,VALID,361.11,VALID,24.5992,VALID,28,VALID,0,
2013-01-06, 09:49:04,VALID,917.96,VALID,0,VALID,71.8278,VALID,360.573,VALID,24.6773,VALID,26,VALID,0,
2013-01-06, 09:50:04,VALID,917.971,VALID,0,VALID,70.9969,VALID,404.731,VALID,24.7535,VALID,28,VALID,0,
2013-01-06, 09:51:04,VALID,917.924,VALID,0,VALID,71.4238,VALID,455.765,VALID,24.8726,VALID,28,VALID,0,
2013-01-06, 09:52:04,VALID,917.946,VALID,0,VALID,69.9753,VALID,639.06,VALID,25.0093,VALID,22,VALID,0,
2013-01-06, 09:53:04,VALID,917.895,VALID,0,VALID,70.2422,VALID,409.028,VALID,25.1441,VALID,22,VALID,0,
2013-01-06, 09:54:04,VALID,917.917,VALID,0,VALID,69.556,VALID,467.906,VALID,25.2046,VALID,34,VALID,0,
2013-01-06, 09:55:04,VALID,917.881,VALID,0,VALID,66.8192,VALID,599.844,VALID,25.2632,VALID,27,VALID,0,
2013-01-06, 09:56:04,VALID,917.883,VALID,0,VALID,64.9439,VALID,508.734,VALID,25.2612,VALID,356,VALID,0,
2013-01-06, 09:57:04,VALID,917.886,VALID,0,VALID,66.0721,VALID,482.626,VALID,25.146,VALID,26,VALID,0,
2013-01-06, 09:58:04,VALID,917.895,VALID,0,VALID,70.509,VALID,517.544,VALID,24.9897,VALID,40,VALID,0,
2013-01-06, 09:59:04,VALID,917.895,VALID,0,VALID,69.2282,VALID,540.859,VALID,25.0269,VALID,36,VALID,0,
2013-01-06, 10:00:04,VALID,917.871,VALID,0,VALID,70.0287,VALID,666.243,VALID,25.2241,VALID,30,VALID,0,
2013-01-06, 10:01:04,VALID,917.916,VALID,0,VALID,69.6552,VALID,589.852,VALID,25.2436,VALID,27,VALID,0,
2013-01-06, 10:02:04,VALID,917.894,VALID,0,VALID,66.1103,VALID,544.404,VALID,25.4194,VALID,41,VALID,0,
2013-01-06, 10:03:04,VALID,917.859,VALID,0,VALID,67.5206,VALID,562.132,VALID,25.5132,VALID,43,VALID,0,
2013-01-06, 10:04:04,VALID,917.889,VALID,0,VALID,67.1547,VALID,490.039,VALID,25.689,VALID,339,VALID,0,
2013-01-06, 10:05:04,VALID,917.874,VALID,0,VALID,64.3645,VALID,491.113,VALID,25.7671,VALID,290,VALID,0,
2013-01-06, 10:06:04,VALID,917.892,VALID,0,VALID,61.6887,VALID,492.403,VALID,25.7085,VALID,250,VALID,0,
2013-01-06, 10:07:04,VALID,917.859,VALID,0,VALID,65.5233,VALID,498.527,VALID,25.689,VALID,36,VALID,0,
2013-01-06, 10:08:04,VALID,917.87,VALID,0,VALID,65.7825,VALID,431.269,VALID,25.6909,VALID,2,VALID,0,
2013-01-06, 10:09:04,VALID,917.853,VALID,0,VALID,67.2462,VALID,408.706,VALID,25.4956,VALID,33,VALID,0,
2013-01-06, 10:10:04,VALID,917.877,VALID,0,VALID,65.8206,VALID,414.293,VALID,25.357,VALID,21,VALID,0,
2013-01-06, 10:11:04,VALID,917.874,VALID,0,VALID,68.4659,VALID,434.599,VALID,25.2593,VALID,29,VALID,0,
2013-01-06, 10:12:04,VALID,917.866,VALID,0,VALID,66.8574,VALID,397.747,VALID,25.2984,VALID,344,VALID,0,
2013-01-06, 10:13:04,VALID,917.856,VALID,0,VALID,68.1686,VALID,368.738,VALID,25.3589,VALID,40,VALID,0,
2013-01-06, 10:14:04,VALID,917.878,VALID,0,VALID,69.1596,VALID,357.134,VALID,25.357,VALID,314,VALID,0,
2013-01-06, 10:15:04,VALID,917.836,VALID,0,VALID,66.7659,VALID,353.696,VALID,25.4351,VALID,35,VALID,0,
2013-01-06, 10:16:04,VALID,917.831,VALID,0,VALID,66.5448,VALID,352.3,VALID,25.3179,VALID,25,VALID,0,
2013-01-06, 10:17:04,VALID,917.847,VALID,0,VALID,66.987,VALID,354.771,VALID,25.1812,VALID,359,VALID,0,